Location: Newark
(49.5647°N, 8.2922°E)
Time: 02:35:47
(UTC+00:00)

Tiros 1 despin weight - All Passes

Search period start: 23 February 2020 00:00
Search period end: 04 March 2020 00:00
Orbit: 594 x 642 km, 48.2° (Epoch: 22 February)

Date Brightness Start Highest point End Pass type
(mag) Time Alt. Az. Time Alt. Az. Time Alt. Az.
23 Feb - 00:44:52 10° SW 00:49:09 49° SSE 00:53:25 10° E night (unlit)
23 Feb - 02:26:06 10° W 02:30:31 76° S 02:34:55 10° E visible
23 Feb - 04:07:37 10° W 04:11:54 51° SSW 04:16:10 10° SE visible
23 Feb - 05:49:47 10° W 05:52:47 18° SW 05:55:47 10° S visible
23 Feb - 23:20:43 10° SSW 23:24:30 27° SSE 23:28:15 10° E night (unlit)
24 Feb - 01:01:12 10° WSW 01:05:36 64° SSE 01:09:58 10° E night (unlit)
24 Feb - 02:42:37 10° W 02:47:02 72° S 02:51:26 10° ESE visible
24 Feb - 04:24:14 10° W 04:28:17 36° SSW 04:32:18 10° SE visible
24 Feb - 06:08:19 10° SW 06:08:53 10° SW 06:09:27 10° SW daylight
24 Feb - 21:58:06 10° SSE 22:00:05 13° SE 22:02:03 10° ESE night (unlit)
24 Feb - 23:36:37 10° SW 23:40:48 41° SSE 23:44:58 10° E night (unlit)
25 Feb - 01:17:40 10° W 01:22:06 74° S 01:26:30 10° E night (unlit)
25 Feb - 02:59:10 10° W 03:03:31 60° SSW 03:07:52 10° ESE visible
25 Feb - 04:41:01 10° W 04:44:33 24° SW 04:48:04 10° SSE visible
25 Feb - 22:12:50 10° SSW 22:16:14 21° SE 22:19:36 10° E night (unlit)
25 Feb - 23:52:51 10° WSW 23:57:12 56° SSE 00:01:33 10° E night (unlit)
26 Feb - 01:34:11 10° W 01:38:38 75° S 01:43:02 10° E night (unlit)
26 Feb - 03:15:44 10° W 03:19:57 44° SSW 03:24:08 10° SE visible
26 Feb - 04:58:19 10° WSW 05:00:43 14° SW 05:03:07 10° S visible
26 Feb - 22:28:28 10° SW 22:32:29 33° SSE 22:36:28 10° E night (unlit)
27 Feb - 00:09:15 10° WSW 00:13:41 69° S 00:18:05 10° E night (unlit)
27 Feb - 01:50:43 10° W 01:55:07 67° S 01:59:30 10° ESE night (unlit)
27 Feb - 03:32:24 10° W 03:36:17 30° SSW 03:40:08 10° SSE visible
27 Feb - 21:05:13 10° S 21:08:00 16° SE 21:10:45 10° ESE night (unlit)
27 Feb - 22:44:32 10° SW 22:48:50 47° SSE 22:53:06 10° E night (unlit)
28 Feb - 00:25:44 10° W 00:30:12 76° S 00:34:37 10° E night (unlit)
28 Feb - 02:07:15 10° W 02:11:35 53° SSW 02:15:53 10° ESE night (unlit)
28 Feb - 03:49:20 10° W 03:52:30 19° SW 03:55:40 10° S visible
28 Feb - 21:20:27 10° SSW 21:24:12 26° SSE 21:27:53 10° E night (unlit)
28 Feb - 23:00:51 10° WSW 23:05:17 62° SSE 23:09:40 10° E night (unlit)
29 Feb - 00:42:16 10° W 00:46:43 73° S 00:51:07 10° ESE night (unlit)
29 Feb - 02:23:52 10° W 02:27:59 38° SSW 02:32:03 10° SE night (unlit)
29 Feb - 04:07:14 10° WSW 04:08:37 11° SW 04:10:00 10° SSW visible
29 Feb - 19:58:09 10° SSE 19:59:48 12° SE 20:01:27 10° ESE night (unlit)
29 Feb - 21:36:18 10° SW 21:40:29 39° SSE 21:44:38 10° E night (unlit)
29 Feb - 23:17:18 10° WSW 23:21:46 73° S 23:26:11 10° E night (unlit)
01 Mar - 00:58:48 10° W 01:03:12 62° SSW 01:07:33 10° ESE night (unlit)
01 Mar - 02:40:37 10° W 02:44:16 25° SSW 02:47:53 10° SSE night (unlit)
01 Mar - 20:12:37 10° S 20:15:56 20° SE 20:19:13 10° E night (unlit)
01 Mar - 21:52:29 10° WSW 21:56:53 54° SSE 22:01:14 10° E night (unlit)
01 Mar - 23:33:48 10° W 23:38:17 76° S 23:42:42 10° E night (unlit)
02 Mar - 01:15:22 10° W 01:19:38 47° SSW 01:23:52 10° SE night (unlit)
02 Mar - 02:57:47 10° WSW 03:00:27 16° SW 03:03:06 10° S night (unlit)
02 Mar - 20:28:10 10° SSW 20:32:10 31° SSE 20:36:08 10° E visible
02 Mar - 22:08:52 10° WSW 22:13:20 68° S 22:17:46 10° E night (unlit)
02 Mar - 23:50:20 10° W 23:54:48 69° S 23:59:12 10° ESE night (unlit)
03 Mar - 01:32:00 10° W 01:35:58 32° SSW 01:39:55 10° SE night (unlit)
03 Mar - 19:05:05 10° S 19:07:42 15° SE 19:10:18 10° ESE visible
03 Mar - 20:44:11 10° SW 20:48:30 45° SSE 20:52:47 10° E visible
03 Mar - 22:25:21 10° W 22:29:51 75° S 22:34:18 10° E night (unlit)
